• In Österreich
  • Länderverzeichnis
  • Für 7 Tage
  • Wassertemperatur
  • Satellitenkarten
  • Wetterkarte
  • News
  • Widgets
  • user-avatar
    Anmelden

    Stündliche Wetter Bregenz

    Heute, 13 Dezember, Mittwoch

    Zeit Temperatur Niederschläge Wind Luftdruck Luftfeuchtigkeit
    00:00 -10°C° 0 mm 2 m/S 643 mmHg 92%
    01:00 -10°C° 0 mm 2 m/S 643 mmHg 91%
    02:00 -12°C° 0 mm 2 m/S 643 mmHg 89%
    03:00 -12°C° 0 mm 2 m/S 643 mmHg 87%
    04:00 -13°C° 0 mm 2 m/S 642 mmHg 86%
    05:00 -13°C° 0 mm 2 m/S 643 mmHg 83%
    06:00 -13°C° 0 mm 2 m/S 643 mmHg 81%
    07:00 -13°C° 0 mm 2 m/S 643 mmHg 78%
    08:00 -12°C° 0 mm 2 m/S 643 mmHg 76%
    09:00 -9°C° 0 mm 2 m/S 643 mmHg 74%
    10:00 -8°C° 0 mm 2 m/S 643 mmHg 72%
    11:00 -7°C° 0 mm 2 m/S 643 mmHg 71%
    12:00 -5°C° 0 mm 2 m/S 642 mmHg 70%
    13:00 -3°C° 0 mm 2 m/S 642 mmHg 68%
    14:00 -4°C° 0 mm 2 m/S 641 mmHg 69%
    15:00 -4°C° 0 mm 2 m/S 641 mmHg 71%
    16:00 -6°C° 0 mm 3 m/S 640 mmHg 72%
    17:00 -6°C° 0,1 mm 3 m/S 640 mmHg 72%
    18:00 -6°C° 0,1 mm 3 m/S 639 mmHg 73%
    19:00 -6°C° 0,1 mm 3 m/S 639 mmHg 74%
    20:00 -7°C° 0,2 mm 4 m/S 639 mmHg 73%
    21:00 -7°C° 0,2 mm 4 m/S 638 mmHg 72%
    22:00 -7°C° 0,2 mm 4 m/S 637 mmHg 71%
    23:00 -6°C° 0,3 mm 5 m/S 637 mmHg 73%

    Morgen, 14 Dezember, Donnerstag

    Zeit Temperatur Niederschläge Wind Luftdruck Luftfeuchtigkeit
    00:00 -6°C° 0,3 mm 5 m/S 637 mmHg 74%
    01:00 -6°C° 0,3 mm 5 m/S 636 mmHg 76%
    02:00 -5°C° 0,3 mm 6 m/S 637 mmHg 78%
    03:00 -5°C° 0,3 mm 6 m/S 637 mmHg 80%
    04:00 -4°C° 0,3 mm 6 m/S 637 mmHg 82%
    05:00 -5°C° 0,6 mm 6 m/S 637 mmHg 84%
    06:00 -5°C° 0,6 mm 6 m/S 638 mmHg 87%
    07:00 -5°C° 0,6 mm 6 m/S 638 mmHg 89%
    08:00 -5°C° 0,6 mm 5 m/S 638 mmHg 90%
    09:00 -4°C° 0,6 mm 4 m/S 638 mmHg 91%
    10:00 -4°C° 0,6 mm 3 m/S 638 mmHg 92%
    11:00 -2°C° 0,4 mm 3 m/S 638 mmHg 92%
    12:00 -2°C° 0,4 mm 3 m/S 638 mmHg 92%
    13:00 -2°C° 0,4 mm 3 m/S 637 mmHg 92%
    14:00 -2°C° 0,2 mm 3 m/S 637 mmHg 91%
    15:00 -3°C° 0,2 mm 2 m/S 636 mmHg 90%
    16:00 -3°C° 0,2 mm 2 m/S 635 mmHg 88%
    17:00 -5°C° 0,1 mm 3 m/S 635 mmHg 86%
    18:00 -5°C° 0,1 mm 3 m/S 634 mmHg 83%
    19:00 -7°C° 0,1 mm 4 m/S 634 mmHg 81%
    20:00 -7°C° 0 mm 4 m/S 633 mmHg 79%
    21:00 -7°C° 0 mm 4 m/S 632 mmHg 77%
    22:00 -7°C° 0 mm 4 m/S 632 mmHg 75%
    23:00 -6°C° 0,4 mm 5 m/S 632 mmHg 76%

    übermorgen, 15 Dezember, Freitag

    Zeit Temperatur Niederschläge Wind Luftdruck Luftfeuchtigkeit
    00:00 -6°C° 0,4 mm 5 m/S 632 mmHg 78%
    01:00 -5°C° 0,4 mm 5 m/S 632 mmHg 79%
    02:00 -6°C° 1,7 mm 5 m/S 632 mmHg 84%
    03:00 -6°C° 1,7 mm 5 m/S 632 mmHg 89%
    04:00 -7°C° 1,7 mm 4 m/S 632 mmHg 93%
    05:00 -7°C° 0,7 mm 4 m/S 632 mmHg 93%
    06:00 -7°C° 0,7 mm 3 m/S 632 mmHg 93%
    07:00 -7°C° 0,7 mm 3 m/S 632 mmHg 93%
    08:00 -7°C° 0,1 mm 3 m/S 632 mmHg 92%
    09:00 -7°C° 0,1 mm 3 m/S 633 mmHg 91%
    10:00 -6°C° 0,1 mm 3 m/S 633 mmHg 90%
    11:00 -6°C° 0 mm 3 m/S 633 mmHg 88%
    12:00 -5°C° 0 mm 3 m/S 633 mmHg 86%
    13:00 -5°C° 0 mm 3 m/S 633 mmHg 85%
    14:00 -5°C° 0 mm 3 m/S 633 mmHg 86%
    15:00 -6°C° 0 mm 3 m/S 632 mmHg 87%
    16:00 -6°C° 0 mm 2 m/S 632 mmHg 87%
    17:00 -6°C° 0,1 mm 2 m/S 632 mmHg 87%
    18:00 -8°C° 0,1 mm 3 m/S 633 mmHg 86%
    19:00 -8°C° 0,1 mm 3 m/S 633 mmHg 85%
    20:00 -8°C° 0,4 mm 3 m/S 634 mmHg 87%
    21:00 -8°C° 0,4 mm 3 m/S 634 mmHg 90%
    22:00 -7°C° 0,4 mm 3 m/S 635 mmHg 92%
    23:00 -8°C° 0,4 mm 3 m/S 635 mmHg 92%

    16 Dezember, Samstag

    Zeit Temperatur Niederschläge Wind Luftdruck Luftfeuchtigkeit
    00:00 -8°C° 0,4 mm 3 m/S 636 mmHg 92%
    01:00 -8°C° 0,4 mm 3 m/S 636 mmHg 92%
    02:00 -7°C° 0,2 mm 2 m/S 637 mmHg 92%
    03:00 -8°C° 0,2 mm 2 m/S 637 mmHg 92%
    04:00 -8°C° 0,2 mm 2 m/S 637 mmHg 92%
    05:00 -8°C° 0 mm 2 m/S 638 mmHg 91%
    06:00 -8°C° 0 mm 2 m/S 638 mmHg 90%
    07:00 -9°C° 0 mm 2 m/S 638 mmHg 89%
    08:00 -8°C° 0 mm 2 m/S 639 mmHg 88%
    09:00 -8°C° 0 mm 2 m/S 639 mmHg 87%
    10:00 -7°C° 0 mm 2 m/S 640 mmHg 86%
    11:00 -7°C° 0 mm 2 m/S 640 mmHg 85%
    12:00 -6°C° 0 mm 2 m/S 640 mmHg 84%
    13:00 -5°C° 0 mm 2 m/S 640 mmHg 83%
    14:00 -5°C° 0 mm 2 m/S 640 mmHg 86%
    15:00 -6°C° 0 mm 2 m/S 640 mmHg 88%
    16:00 -7°C° 0 mm 2 m/S 640 mmHg 91%
    17:00 -7°C° 0 mm 2 m/S 641 mmHg 91%
    18:00 -8°C° 0 mm 2 m/S 641 mmHg 92%
    19:00 -8°C° 0 mm 2 m/S 642 mmHg 93%
    20:00 -8°C° 0,2 mm 2 m/S 642 mmHg 93%
    21:00 -8°C° 0,2 mm 2 m/S 642 mmHg 93%
    22:00 -8°C° 0,2 mm 2 m/S 643 mmHg 93%
    23:00 -9°C° 0,3 mm 2 m/S 643 mmHg 93%

    17 Dezember, Sonntag

    Zeit Temperatur Niederschläge Wind Luftdruck Luftfeuchtigkeit
    00:00 -9°C° 0,3 mm 2 m/S 643 mmHg 93%
    01:00 -9°C° 0,3 mm 2 m/S 644 mmHg 94%
    02:00 -9°C° 0,2 mm 2 m/S 644 mmHg 94%
    03:00 -8°C° 0,2 mm 1 m/S 644 mmHg 95%
    04:00 -8°C° 0,2 mm 1 m/S 644 mmHg 95%
    05:00 -8°C° 0,1 mm 1 m/S 645 mmHg 95%
    06:00 -8°C° 0,1 mm 1 m/S 645 mmHg 96%
    07:00 -9°C° 0,1 mm 1 m/S 645 mmHg 96%
    08:00 -8°C° 0,1 mm 1 m/S 646 mmHg 95%
    09:00 -9°C° 0,1 mm 2 m/S 646 mmHg 94%
    10:00 -8°C° 0,1 mm 2 m/S 647 mmHg 93%
    11:00 -8°C° 0,2 mm 2 m/S 647 mmHg 92%
    12:00 -7°C° 0,2 mm 2 m/S 647 mmHg 90%
    13:00 -7°C° 0,2 mm 2 m/S 647 mmHg 89%
    14:00 -7°C° 0,1 mm 2 m/S 648 mmHg 91%
    15:00 -6°C° 0,1 mm 1 m/S 648 mmHg 92%
    16:00 -7°C° 0,1 mm 1 m/S 648 mmHg 94%
    17:00 -7°C° 0,1 mm 1 m/S 649 mmHg 94%
    18:00 -8°C° 0,1 mm 1 m/S 649 mmHg 94%
    19:00 -9°C° 0,1 mm 1 m/S 649 mmHg 95%
    20:00 -9°C° 0 mm 1 m/S 650 mmHg 93%
    21:00 -10°C° 0 mm 1 m/S 650 mmHg 92%
    22:00 -13°C° 0 mm 2 m/S 650 mmHg 91%
    23:00 -13°C° 0 mm 2 m/S 650 mmHg 90%

    18 Dezember, Montag

    Zeit Temperatur Niederschläge Wind Luftdruck Luftfeuchtigkeit
    00:00 -14°C° 0 mm 2 m/S 650 mmHg 89%
    01:00 -14°C° 0 mm 2 m/S 650 mmHg 88%
    02:00 -14°C° 0 mm 2 m/S 649 mmHg 87%
    03:00 -15°C° 0 mm 2 m/S 649 mmHg 85%
    04:00 -15°C° 0 mm 2 m/S 649 mmHg 84%
    05:00 -15°C° 0 mm 2 m/S 649 mmHg 82%
    06:00 -15°C° 0 mm 2 m/S 649 mmHg 80%
    07:00 -15°C° 0 mm 2 m/S 650 mmHg 78%
    08:00 -14°C° 0 mm 2 m/S 650 mmHg 78%
    09:00 -12°C° 0 mm 2 m/S 650 mmHg 78%
    10:00 -9°C° 0 mm 1 m/S 650 mmHg 77%
    11:00 -8°C° 0 mm 1 m/S 650 mmHg 75%
    12:00 -6°C° 0 mm 1 m/S 650 mmHg 73%
    13:00 -5°C° 0 mm 0 m/S 650 mmHg 71%
    14:00 -6°C° 0 mm 0 m/S 650 mmHg 74%
    15:00 -7°C° 0 mm 0 m/S 649 mmHg 78%
    16:00 -8°C° 0 mm 0 m/S 649 mmHg 81%
    17:00 -9°C° 0 mm 1 m/S 649 mmHg 79%
    18:00 -9°C° 0 mm 1 m/S 649 mmHg 77%
    19:00 -10°C° 0 mm 1 m/S 650 mmHg 75%
    20:00 -10°C° 0 mm 1 m/S 650 mmHg 73%
    21:00 -10°C° 0 mm 1 m/S 650 mmHg 71%
    22:00 -10°C° 0 mm 1 m/S 650 mmHg 70%
    23:00 -10°C° 0 mm 1 m/S 650 mmHg 69%
    Mehr zeigen